Location: Newark
(44.3248°N, 23.7839°E)
Time: 06:15:24
(UTC+00:00)

PCSat - Pass Details

Date: 14 April 2024
Orbit: 783 x 792 km, 67.1° (Epoch: 26 May)

Event Time Altitude Azimuth Distance (km) Brightness Sun altitude
Rises 18:11:57 0° 174° (S) 3,260 12.4 -11.4°
Reaches altitude 10° 18:14:43 10° 162° (SSE) 2,338 11.6 -11.9°
Maximum altitude 18:19:00 25° 108° (ESE) 1,549 10.5 -12.6°
Drops below altitude 10° 18:23:20 10° 55° (NE) 2,357 11.8 -13.3°
Sets 18:26:07 0° 42° (NE) 3,293 12.6 -13.7°
